カタログに戻る

THOR ABLESTAR DEB

運用中LEO
NORAD 354·DEBRIS·🇺🇸 United States

打ち上げ Jun 29, 1961 から Cape Canaveral Space Force Station

Loading…

次のパス (今後24時間)

TLE

最新Source: Space-Track

元期: Sep 14, 2026, 10:10 UTC

1 00354U 61015DU  26257.42397142  .00000160  00000-0  32862-3 0  9990
2 00354  67.0647 259.1642 0172028 247.7467 185.2191 13.49482660489911

AllMySatでTHOR ABLESTAR DEBをリアルタイム追跡

Download on the App Store